GFSGBSN_sfc_wetblb_336.txt.gz
Wetbulb
61.25 61.29 60.75 60.44 60.00 60.08 60.08 60.13 60.43 60.49 60.78 60.88 60.96 60.67 60.61 60.55 60.47 60.50 60.46 60.22 59.92 59.89 59.36 59.75 60.11 61.37 64.38 56.54 55.14 66.43 75.99 75.51 74.30 69.80 62.84 62.55 64.51 64.73 62.93 65.42 65.96 64.98 65.45 66.65 66.84 66.79 66.77
60.50 60.47 60.41 60.43 60.08 59.72 59.95 60.04 59.72 60.41 60.65 60.71 60.46 60.31 60.05 59.82 59.96 59.96 59.78 59.32 59.11 59.30 59.52 59.46 60.22 61.74 60.77 52.37 59.77 66.37 69.77 70.20 69.61 65.00 61.66 62.05 64.67 66.69 65.12 65.37 65.02 65.75 65.70 65.85 66.77 66.68 66.61
60.84 60.52 60.38 60.19 60.22 59.96 59.85 59.55 59.89 60.51 60.50 60.35 60.13 59.85 59.50 59.39 59.45 59.48 59.06 58.53 58.67 59.75 59.65 59.70 61.10 63.59 56.77 55.18 63.76 63.46 63.03 66.31 64.35 62.65 60.72 61.44 65.40 65.21 65.46 65.22 66.76 65.86 62.80 65.08 65.83 66.37 64.58
61.61 61.55 61.54 61.19 60.56 60.28 60.24 60.26 59.79 60.34 59.97 59.82 59.58 59.41 59.19 58.81 58.72 58.45 58.12 57.81 58.73 62.00 60.85 60.70 61.80 63.29 54.94 58.00 61.01 61.42 62.77 61.67 62.93 62.05 60.90 62.02 65.75 66.09 65.81 67.63 64.91 62.56 62.76 59.78 63.15 64.47 65.19
60.34 60.21 59.93 60.05 60.17 59.93 59.67 59.76 59.76 59.33 59.19 59.01 58.83 58.55 58.30 58.16 57.68 57.38 56.72 57.63 60.54 62.53 61.91 62.44 64.20 58.87 53.79 61.75 59.95 61.11 62.64 59.96 61.10 61.19 61.58 61.40 63.97 65.36 65.61 62.44 60.31 60.79 57.48 57.64 59.60 64.35 63.90
59.03 59.17 59.12 59.20 59.08 58.73 58.60 58.64 58.56 58.36 58.18 57.95 57.65 57.53 57.33 57.15 56.73 56.27 56.14 57.38 59.79 62.33 64.68 65.10 63.55 59.18 58.44 56.89 60.62 61.31 62.71 60.54 58.93 59.11 59.09 59.29 62.07 61.94 62.57 60.90 55.78 56.22 57.07 57.80 57.59 61.87 62.40
57.71 57.73 57.82 57.96 58.41 58.30 58.18 58.01 57.93 57.82 57.59 57.50 57.13 56.86 56.73 56.39 55.97 55.40 58.81 61.19 60.65 59.72 60.79 57.52 58.53 56.51 57.22 61.07 62.92 60.54 61.57 59.30 58.83 58.19 55.56 58.48 57.61 57.63 60.22 61.32 60.41 59.05 57.52 56.31 58.20 61.60 61.83
57.46 57.53 57.60 57.92 57.98 57.99 57.72 57.48 57.27 57.21 57.03 56.92 56.76 56.39 56.22 55.97 55.38 55.27 60.49 60.22 59.10 59.78 56.01 59.42 59.16 58.95 60.08 60.81 57.59 59.21 60.72 56.24 55.52 53.19 56.22 55.09 54.49 59.55 61.94 61.66 60.29 59.03 57.41 56.79 58.83 61.53 61.65
57.05 56.64 57.12 57.33 57.14 57.29 57.31 56.96 56.69 56.64 56.57 56.43 56.29 56.10 55.76 55.09 55.25 60.91 61.04 59.91 62.88 62.50 56.22 56.95 58.25 57.98 58.27 59.38 56.60 57.45 58.26 56.63 54.31 52.81 53.48 53.35 55.83 59.09 59.32 59.81 58.94 58.85 57.36 56.72 55.99 58.32 61.36
56.67 56.01 56.16 56.25 56.59 56.82 56.68 56.42 56.48 56.49 56.20 56.06 56.02 55.91 55.27 54.17 57.72 60.98 60.97 61.80 63.75 62.37 53.84 55.58 56.32 58.42 58.82 59.02 55.25 60.26 58.92 56.90 53.87 52.20 53.00 53.32 55.91 54.55 56.15 57.59 59.49 56.61 59.02 57.51 56.05 55.83 53.44
56.53 56.86 56.77 56.60 56.57 56.46 56.31 55.86 55.82 56.00 55.95 55.93 55.97 55.72 54.62 53.84 58.63 59.87 61.36 63.49 63.18 60.17 46.45 55.99 55.80 61.85 59.33 56.77 57.42 57.43 59.10 56.26 52.95 52.27 52.76 51.40 52.36 53.01 54.16 56.84 59.54 57.58 58.48 57.55 56.16 55.87 54.81
55.66 55.73 55.72 55.65 55.70 56.10 56.01 55.73 55.51 55.16 55.34 55.58 55.50 55.31 54.63 58.22 59.94 61.16 63.05 63.80 60.18 51.30 44.75 53.70 56.22 55.77 55.49 56.22 55.44 56.51 55.37 57.35 56.18 52.92 53.40 52.80 54.39 54.11 54.82 57.23 57.98 59.34 57.79 58.17 57.81 56.56 51.06
55.19 55.32 55.43 55.38 55.40 55.85 55.56 55.32 55.10 54.95 54.62 54.87 54.40 53.53 53.83 58.20 60.29 62.43 63.39 60.76 51.50 46.56 53.77 52.98 53.06 54.84 54.23 53.38 53.58 54.37 53.44 52.59 50.63 48.43 49.07 51.43 51.55 53.62 54.08 52.76 55.81 56.46 53.70 49.67 49.40 50.53 49.35
55.01 55.01 55.22 55.64 55.77 55.89 55.60 55.46 55.15 54.46 54.30 54.01 52.76 52.24 56.68 58.90 62.76 62.48 61.91 55.05 46.90 47.89 53.37 55.89 52.88 54.21 51.95 53.61 53.61 53.59 52.37 50.68 53.20 52.31 50.49 48.24 46.27 52.11 54.33 53.04 52.09 52.91 53.31 49.34 46.44 48.46 49.77
55.15 55.05 55.36 55.72 55.85 55.97 55.74 55.28 54.73 54.22 53.87 53.35 52.25 62.27 62.55 64.14 63.61 62.69 58.34 49.92 50.79 49.39 54.49 51.76 53.64 52.56 52.77 53.04 52.51 52.91 52.55 51.57 52.46 53.49 49.84 49.09 48.55 53.54 53.84 54.86 54.80 52.89 51.64 55.15 51.45 52.41 50.13
55.09 55.07 55.07 55.80 55.93 55.93 55.76 55.40 54.79 54.17 53.56 53.35 57.74 60.23 63.63 63.60 63.61 61.17 55.16 48.30 51.38 53.56 53.67 53.33 51.46 52.89 51.88 52.61 51.31 51.92 52.00 53.80 53.18 54.62 55.53 52.17 48.79 52.20 53.22 53.82 54.08 54.02 55.80 50.27 51.68 47.24 46.28
55.14 55.01 55.22 55.57 55.81 55.95 55.86 55.64 54.91 53.85 53.22 53.39 58.70 57.89 62.03 63.21 61.21 57.00 51.83 52.45 52.80 54.14 54.44 53.32 52.53 51.27 52.41 52.03 52.93 51.58 51.98 53.56 54.78 54.37 55.55 53.77 51.17 50.76 52.44 51.57 51.69 51.81 51.92 52.94 53.43 51.97 48.27
54.55 55.12 55.64 55.63 55.75 55.93 56.07 55.72 54.70 52.96 52.49 54.70 58.15 54.61 62.74 64.29 55.41 56.98 53.26 53.35 48.84 53.83 55.71 55.78 55.65 54.19 53.68 53.61 52.58 52.04 51.61 53.59 55.93 55.87 52.31 54.56 51.99 49.66 49.96 54.13 54.83 54.76 53.11 53.41 50.13 50.18 51.06
54.50 54.92 55.44 55.58 55.67 55.91 56.17 55.52 54.34 52.64 52.73 53.99 54.54 58.44 63.82 61.92 53.26 53.26 54.80 53.73 53.84 54.78 55.94 55.51 54.16 54.72 55.43 54.33 53.01 53.70 53.68 55.58 55.47 55.24 53.76 54.38 50.67 47.70 49.09 51.07 52.91 52.02 53.90 54.29 54.21 53.34 50.45
54.27 54.66 54.84 55.38 55.47 55.63 55.99 55.47 54.20 53.06 52.68 55.36 54.94 53.85 58.74 59.38 59.60 55.38 54.02 54.17 53.95 57.50 56.92 57.74 57.28 57.77 56.34 55.38 56.95 55.36 54.83 54.80 54.51 55.47 62.31 59.33 52.25 50.13 47.84 50.24 52.75 50.86 52.72 53.59 53.13 49.77 50.39
54.13 54.25 54.76 55.02 55.16 55.47 55.75 55.60 54.56 53.23 52.54 55.41 57.20 55.12 56.44 54.22 55.64 56.56 56.49 55.51 53.73 53.68 57.59 58.89 57.47 56.40 55.72 54.18 55.84 55.04 56.11 58.96 54.91 59.22 56.09 55.27 50.95 51.88 52.55 52.09 52.45 52.46 51.91 51.96 51.64 52.69 50.82
53.57 53.96 54.21 54.96 54.94 55.34 55.73 55.66 55.23 53.61 52.55 56.87 54.08 53.89 56.99 57.31 56.13 55.84 52.23 55.27 54.21 55.12 56.23 56.06 56.12 56.91 57.93 56.30 57.24 56.23 58.00 58.83 54.44 56.42 54.71 55.86 51.81 53.51 51.44 52.81 54.26 52.66 54.67 53.31 52.84 53.20 53.23
53.49 53.78 54.14 54.51 55.04 55.63 55.40 55.79 55.72 53.85 52.82 54.26 55.88 57.27 54.92 51.04 54.14 54.70 54.92 55.14 55.21 56.79 57.78 58.48 57.74 57.27 57.25 58.36 59.61 60.62 61.12 60.87 60.28 57.18 54.25 54.15 53.20 52.92 50.25 54.61 54.83 51.65 54.99 56.73 54.59 54.81 54.34
53.42 53.54 53.92 54.13 54.46 55.23 55.64 55.52 55.95 54.69 53.27 54.56 55.52 54.72 52.68 49.23 52.93 53.61 54.73 55.86 55.64 56.78 56.21 58.36 59.18 57.81 60.74 63.01 62.37 62.32 61.59 60.73 59.50 59.69 58.63 54.40 54.13 53.99 52.68 54.81 47.65 55.14 61.08 60.33 59.45 59.44 58.76
53.32 53.42 53.49 53.83 54.09 54.76 55.55 55.93 55.59 55.61 53.85 55.24 55.21 54.58 52.82 48.84 51.81 51.99 53.76 55.01 56.85 58.05 57.18 57.51 59.06 61.28 62.63 60.69 58.59 57.54 56.96 55.53 55.61 54.84 54.59 55.90 55.37 53.61 51.53 50.67 53.22 55.41 59.56 59.94 58.93 58.32 62.01
53.34 53.37 53.43 53.68 54.16 54.49 55.43 55.92 55.83 55.85 54.20 54.11 55.56 57.38 53.63 49.03 49.40 51.60 51.42 53.21 53.24 54.42 55.92 57.72 61.22 62.96 61.59 59.49 57.44 54.08 52.50 54.85 52.90 54.02 56.10 56.17 57.08 54.88 53.38 49.55 48.18 55.33 61.36 63.37 62.89 57.38 63.61
53.29 53.43 53.37 53.72 54.11 54.47 55.17 55.77 56.02 56.07 54.60 53.71 54.57 56.85 53.53 49.19 51.90 53.04 51.80 52.08 55.84 55.00 54.42 56.66 58.02 59.51 61.36 58.36 55.63 54.43 53.80 57.29 52.62 53.20 53.41 54.34 54.93 52.89 53.42 51.10 53.77 61.32 62.88 64.12 55.68 58.33 65.24
53.17 53.54 53.85 54.00 54.02 54.44 55.02 55.53 55.80 56.31 55.79 54.02 54.34 56.72 53.08 49.29 51.61 53.22 54.36 53.57 55.02 55.46 53.30 57.75 57.09 58.41 58.59 56.01 56.42 57.17 56.10 57.72 56.05 57.03 56.20 55.43 53.39 52.20 53.61 52.08 50.78 62.83 63.08 59.34 64.85 66.45 66.57
53.38 54.18 54.40 54.52 54.51 54.70 55.09 55.46 55.56 56.29 55.95 54.23 51.55 55.95 56.08 50.04 50.52 54.66 54.91 56.07 55.59 56.29 54.83 56.40 56.61 56.45 58.63 57.26 58.70 57.87 57.57 59.97 58.16 53.25 59.84 55.87 57.12 54.57 55.94 55.49 64.02 64.77 65.74 67.10 66.93 68.18 68.02

GFSGBSN_sfc_wetblb_339.txt.gz
Wetbulb
60.92 60.97 60.90 60.84 60.62 60.53 60.15 59.78 60.02 60.82 61.11 61.25 61.03 60.74 60.47 60.29 60.19 60.20 60.11 59.85 59.88 59.84 60.07 60.65 60.76 61.28 65.12 60.50 57.81 67.96 75.92 73.92 73.66 72.79 68.70 65.00 65.26 66.00 64.09 65.34 66.42 65.31 66.04 66.93 67.90 67.51 67.59
61.98 61.53 61.11 60.94 60.75 60.47 60.20 60.36 60.34 60.88 60.77 60.52 60.10 59.94 59.60 59.55 59.47 59.46 59.30 58.99 59.03 59.49 60.72 61.03 60.90 61.17 64.65 55.30 61.64 64.82 67.26 67.43 67.20 69.18 66.50 65.74 65.56 67.22 66.06 65.04 65.07 66.31 66.60 66.93 67.54 67.55 67.80
61.47 61.19 61.32 61.40 61.24 60.94 60.74 60.65 60.55 60.36 60.07 59.67 59.37 59.19 58.81 58.81 58.82 58.81 58.64 58.32 58.68 59.80 62.27 60.94 61.57 65.15 59.93 57.09 63.34 63.85 63.91 66.59 67.52 67.50 64.18 65.79 66.13 66.45 66.39 64.76 67.25 66.07 63.83 65.74 66.39 66.85 65.83
60.43 59.89 59.64 59.98 59.95 59.75 59.55 59.51 59.51 59.22 58.89 58.72 58.61 58.61 58.42 58.30 58.15 57.93 57.85 57.53 58.51 61.22 62.31 62.05 62.50 65.41 57.91 60.71 62.62 61.56 63.98 63.37 66.22 64.30 63.67 65.32 66.52 66.68 66.35 67.36 65.57 63.69 63.90 60.63 63.95 65.31 65.91
59.17 59.08 59.01 59.20 59.15 58.92 58.83 58.85 58.77 58.37 58.18 57.96 57.86 57.80 57.76 57.60 57.43 56.91 56.58 57.30 59.58 63.91 63.64 63.02 66.22 63.35 56.51 62.12 58.87 61.36 63.64 61.31 62.57 63.18 64.35 63.60 64.85 65.12 65.61 63.25 61.43 62.54 57.87 58.91 61.13 65.14 65.14
58.13 58.10 58.26 58.20 58.45 58.45 58.35 58.10 57.91 57.67 57.52 57.38 57.25 57.12 56.96 56.83 56.52 56.10 56.15 57.09 62.05 62.47 65.44 67.35 66.12 61.25 60.40 56.58 60.61 61.43 63.61 62.33 60.90 61.18 61.08 61.68 63.29 61.95 62.75 61.54 53.43 57.39 57.85 58.71 58.93 63.06 63.42
57.60 56.91 57.47 57.63 57.88 57.99 58.00 57.65 57.44 57.34 57.41 57.27 56.94 56.61 56.42 56.41 56.09 55.53 58.85 65.41 62.06 62.32 63.65 60.08 60.23 59.39 58.05 60.87 62.93 60.91 62.48 60.94 60.45 59.55 56.98 60.85 58.50 57.60 60.13 61.70 61.76 59.97 58.76 57.84 59.43 61.24 62.71
57.41 56.99 56.91 57.44 57.48 57.60 57.44 57.31 57.19 57.14 57.22 56.99 56.66 56.39 56.28 56.15 55.65 55.36 60.17 62.20 61.50 62.37 57.91 61.23 60.49 60.24 61.48 61.55 58.29 58.98 62.28 57.17 56.81 54.56 57.45 58.02 56.13 59.86 61.43 61.59 60.59 59.76 58.52 58.31 59.97 61.32 61.20
57.40 57.35 57.13 57.07 57.36 57.22 57.11 56.82 56.41 56.27 56.48 56.35 56.41 56.16 55.97 55.32 55.02 61.09 63.18 61.99 65.11 64.63 58.28 59.12 60.75 60.05 59.41 60.39 56.57 58.00 59.64 58.08 55.65 54.18 54.95 54.36 56.94 59.39 59.43 60.05 59.51 59.29 58.41 58.09 57.56 59.37 60.92
56.65 56.67 56.63 56.49 56.86 56.81 56.52 56.32 56.10 55.87 55.83 55.58 56.04 56.08 55.51 54.25 57.31 63.48 63.47 64.47 65.80 64.39 55.44 57.19 58.20 59.93 59.70 59.63 55.62 60.60 60.85 57.90 55.62 53.40 54.65 54.94 57.63 56.69 57.19 57.82 60.00 56.85 60.12 58.79 57.34 57.15 54.82
55.94 55.97 56.28 56.36 56.27 56.27 56.31 55.93 55.85 55.66 55.29 55.27 55.68 55.69 54.63 53.82 60.00 62.18 64.01 65.32 65.37 62.98 48.00 57.29 57.42 62.80 60.41 56.82 57.71 57.61 61.58 57.73 54.27 53.96 54.89 53.11 54.01 55.01 54.97 56.91 59.67 58.34 60.67 59.12 58.26 56.56 56.21
55.65 55.51 55.69 55.55 55.70 56.00 56.02 55.84 55.53 55.27 54.98 54.98 55.11 54.96 54.23 60.79 62.74 63.70 65.09 65.17 63.39 53.09 46.47 55.02 57.92 57.22 55.55 56.62 56.86 58.15 56.73 58.61 58.07 54.85 55.07 54.48 56.93 55.86 56.07 57.54 59.28 60.49 59.29 58.93 58.21 56.56 51.87
55.66 55.69 55.66 55.69 55.86 56.15 56.06 55.81 55.47 55.06 54.53 54.27 53.57 53.15 53.80 60.51 62.42 65.12 64.85 62.71 53.51 49.15 55.53 54.24 55.38 56.11 55.11 54.08 54.89 55.56 53.58 52.52 51.68 49.53 50.57 52.70 53.23 55.54 56.06 54.04 57.54 57.80 56.40 51.63 50.64 50.63 50.04
55.49 55.60 55.72 56.20 56.31 56.20 56.10 55.85 55.53 54.88 54.35 53.34 52.12 51.92 58.10 61.66 63.95 64.46 63.26 57.70 49.50 51.64 52.84 57.96 55.72 55.78 53.23 55.03 54.49 54.25 53.00 51.30 53.73 53.05 51.38 49.55 47.71 53.05 55.32 53.60 53.24 54.56 54.56 50.66 46.88 48.06 50.11
55.39 55.61 55.88 56.04 56.11 56.18 56.16 55.89 55.34 54.67 53.82 52.67 51.83 62.60 63.37 66.05 65.76 65.76 59.87 51.87 52.35 53.31 56.59 54.52 55.57 54.21 53.88 54.12 54.27 53.81 53.32 52.47 54.05 54.37 50.89 50.74 49.99 55.72 55.69 55.69 55.05 53.11 51.35 54.96 51.43 52.71 51.38
55.75 55.34 55.47 55.98 56.09 56.06 56.20 55.97 55.34 54.59 53.45 52.62 58.33 60.34 62.11 66.85 66.91 63.42 56.81 50.56 54.39 55.41 56.18 56.16 53.60 55.69 53.74 54.39 53.04 53.63 53.25 54.96 53.60 55.24 56.10 53.73 49.95 54.18 54.83 55.74 55.86 54.25 56.66 50.56 51.94 47.91 47.37
55.04 54.99 55.32 56.05 56.05 56.04 56.20 56.09 55.46 54.20 52.73 52.58 59.53 57.87 64.62 66.82 66.19 59.51 53.06 54.60 55.03 56.20 55.76 55.70 55.03 54.69 55.08 54.25 54.55 53.85 53.43 55.02 55.65 55.39 55.99 54.53 52.55 52.70 54.33 52.51 51.97 52.77 52.46 53.59 53.74 52.16 48.43
54.79 54.98 55.79 55.89 55.99 56.02 56.12 56.03 55.26 53.45 51.69 55.32 59.17 54.45 64.83 65.76 56.77 56.66 54.54 56.69 49.21 55.73 56.86 56.21 57.21 56.87 56.00 55.56 54.82 53.99 52.88 54.67 56.65 56.39 53.43 55.20 53.23 50.07 51.88 55.20 55.97 55.45 53.30 53.95 50.20 50.60 52.52
54.54 54.88 55.38 55.73 55.97 55.96 56.02 55.79 55.06 53.28 52.27 56.20 57.01 57.56 64.83 64.23 54.20 54.60 57.00 55.60 55.95 54.87 56.25 56.62 56.00 56.70 57.78 56.07 53.88 55.17 54.52 56.72 56.73 55.82 54.71 55.37 51.77 48.86 50.54 52.85 54.87 52.96 54.56 54.68 54.54 54.21 52.12
53.73 54.44 54.58 55.29 55.97 55.91 56.02 55.61 54.80 53.69 52.86 55.48 57.06 54.42 58.55 60.64 60.09 58.11 56.10 55.64 54.88 56.94 57.06 58.26 58.37 58.89 57.93 56.57 57.61 56.12 54.42 56.56 56.87 56.90 62.52 60.55 52.97 50.81 48.80 51.40 53.49 51.47 52.37 54.21 53.77 51.21 51.87
53.36 53.85 54.33 54.63 55.56 55.92 56.03 55.75 55.10 54.09 52.94 55.72 58.22 55.76 60.11 55.25 55.13 56.47 56.95 57.39 55.46 55.06 57.84 59.22 58.26 57.80 57.57 55.66 56.54 55.83 57.29 57.54 58.29 61.23 57.03 55.80 51.92 53.19 52.97 53.76 53.40 53.47 52.51 52.58 53.11 53.71 51.83
52.83 53.49 54.01 54.43 54.67 55.70 56.33 55.94 55.63 54.49 52.59 57.07 55.65 55.62 58.95 56.94 58.12 57.72 54.11 56.40 56.24 56.54 56.73 56.86 57.06 57.48 58.25 57.75 59.02 58.28 59.39 59.97 57.73 58.17 55.77 56.88 52.80 54.37 51.83 53.16 53.42 51.99 53.97 53.69 53.52 53.76 53.76
53.53 53.90 53.92 54.03 54.38 55.13 55.89 56.33 55.89 54.98 52.66 56.76 60.39 58.85 55.76 53.04 54.94 54.87 55.13 55.72 56.51 58.37 59.08 59.89 59.62 58.97 58.51 59.84 62.15 62.64 62.46 62.47 62.02 59.76 56.66 55.44 53.61 52.93 50.38 53.15 53.26 51.11 53.76 54.35 54.99 55.04 54.58
54.23 53.94 53.92 53.76 54.22 54.36 54.89 56.23 56.39 56.06 53.86 56.74 58.13 56.84 54.12 50.34 52.59 54.16 55.01 56.45 56.74 58.41 58.00 59.81 60.27 59.30 61.81 64.71 63.89 62.95 62.19 62.05 62.36 61.75 60.74 55.55 54.33 54.44 51.11 53.57 47.52 54.68 58.80 57.80 56.17 56.22 56.73
54.07 53.81 53.85 53.86 53.85 54.33 54.68 55.57 56.40 55.98 55.51 54.31 58.19 56.15 54.98 50.99 53.05 53.26 54.63 56.75 57.63 58.70 58.48 58.71 60.32 62.37 64.00 61.95 58.74 57.25 57.69 58.60 59.07 59.38 59.35 59.19 55.73 52.18 50.82 51.78 53.87 54.46 57.95 57.51 56.28 56.21 58.60
53.90 53.90 53.89 53.94 53.77 54.18 54.45 55.09 55.98 56.33 55.71 54.92 57.05 59.31 55.29 51.83 51.98 54.51 53.03 54.09 53.64 54.68 55.91 58.48 62.22 63.93 62.98 59.92 58.08 54.63 52.83 54.97 54.57 55.90 57.94 57.96 57.30 53.91 53.27 49.33 48.35 54.97 59.10 60.89 60.69 55.44 61.80
53.91 53.79 53.75 54.03 53.87 54.15 54.62 54.99 55.83 56.36 55.77 55.36 56.04 58.23 55.02 51.78 54.92 54.71 53.07 53.36 56.15 54.12 53.65 57.16 59.41 60.12 62.44 57.96 55.50 54.82 54.08 57.64 53.72 53.79 54.19 53.99 55.08 52.98 53.24 52.19 54.35 60.78 62.12 62.96 54.95 57.21 64.05
53.90 53.48 53.89 54.11 54.34 54.45 54.64 54.86 55.47 56.16 56.35 55.29 54.85 57.90 55.10 52.62 54.61 55.78 55.98 54.69 56.03 56.22 54.02 58.83 56.99 58.44 57.95 56.44 56.37 56.92 56.05 57.18 56.82 57.68 56.68 54.71 53.69 52.47 53.77 52.24 50.64 61.88 61.72 58.96 61.13 62.23 63.62
53.74 53.47 54.19 54.59 54.52 54.74 54.94 54.89 55.42 56.08 56.08 55.28 52.55 55.90 56.93 52.21 53.33 56.76 56.73 57.49 57.14 58.38 57.80 58.60 58.49 59.88 61.26 58.83 60.50 60.49 58.54 58.24 52.61 55.02 60.92 54.49 56.45 55.11 55.59 57.68 65.41 64.62 66.70 67.92 65.72 67.57 68.29

GFSGBSN_sfc_wetblb_342.txt.gz
Wetbulb
62.57 62.47 62.38 62.25 61.77 61.32 61.14 61.20 61.17 60.94 60.51 60.09 59.92 59.68 59.48 59.44 59.47 59.56 59.58 59.59 59.46 59.72 60.08 61.42 62.04 61.73 63.60 60.65 57.39 68.95 76.75 76.70 70.49 70.11 69.01 67.98 63.99 65.65 63.87 61.86 62.40 63.11 64.17 65.70 66.47 66.57 66.26
61.30 60.85 60.70 60.82 60.75 60.51 60.44 60.18 60.10 59.92 59.55 59.33 59.08 58.79 58.70 58.73 58.82 58.98 58.93 58.87 58.84 59.47 60.42 62.61 62.21 61.19 62.81 54.84 62.53 64.97 67.75 67.59 62.77 67.81 68.04 67.40 64.35 66.81 66.03 62.88 61.96 66.14 65.14 65.64 66.38 66.06 66.99
60.03 59.43 59.41 59.51 59.54 59.43 59.43 59.51 59.49 59.29 59.03 58.68 58.47 58.25 58.27 58.25 58.48 58.61 58.51 58.25 58.48 59.39 60.93 63.57 62.63 64.17 60.53 58.58 63.37 64.06 63.19 63.96 65.10 65.65 66.28 67.10 66.12 64.91 66.08 64.31 66.81 66.14 63.34 65.07 65.42 65.78 65.92
58.86 58.56 58.49 58.78 58.79 58.80 58.67 58.61 58.69 58.48 58.23 58.00 57.96 57.92 57.88 57.75 57.85 57.86 57.81 57.48 58.25 59.80 62.07 64.80 63.21 63.53 59.13 62.11 63.21 61.50 63.09 62.58 66.44 67.32 67.02 66.32 66.22 64.75 65.31 66.79 65.24 63.31 63.08 59.75 64.18 65.05 65.21
58.28 58.21 58.16 58.31 58.45 58.59 58.43 58.43 58.15 58.08 57.87 57.58 57.58 57.54 57.38 57.31 57.42 57.12 56.73 57.22 58.78 61.43 63.94 65.61 64.42 63.34 57.92 63.77 58.64 61.23 61.99 60.57 62.43 65.22 64.61 65.79 64.60 63.07 64.32 62.02 56.67 59.46 55.87 59.27 60.33 64.58 64.51
57.78 57.80 57.96 58.13 58.20 58.12 57.96 57.93 57.90 57.55 57.26 57.34 57.03 57.02 56.97 56.93 56.80 56.28 55.95 57.42 64.00 61.90 64.83 67.31 66.50 61.50 62.22 57.67 60.30 60.91 62.47 62.20 60.56 60.91 61.13 61.82 62.01 60.15 60.75 60.38 50.83 51.69 53.27 59.81 59.67 62.10 63.51
57.80 57.48 57.61 57.62 57.99 57.99 57.82 57.45 57.19 56.86 56.80 56.65 56.55 56.53 56.64 56.46 55.98 55.55 56.92 63.63 62.95 62.20 63.43 60.93 61.16 60.31 59.53 60.77 62.60 60.75 61.87 60.73 60.15 58.94 56.22 59.58 57.32 55.79 58.32 59.64 57.64 57.91 56.54 58.77 59.53 61.38 61.86
57.96 57.49 57.09 56.91 56.67 57.09 57.20 56.91 56.72 56.50 56.44 56.23 55.92 56.10 56.05 55.94 55.45 55.13 57.69 62.89 61.65 62.59 57.63 61.79 61.51 60.55 62.10 61.97 57.89 59.72 61.81 57.11 55.87 53.37 56.12 55.72 54.57 58.35 59.79 62.06 60.87 59.06 58.36 57.06 59.86 61.31 61.06
56.84 56.84 56.64 56.55 56.53 56.40 56.68 56.53 56.33 56.12 55.96 55.69 55.61 55.56 55.42 55.15 54.76 59.67 63.64 62.67 65.32 65.04 57.89 59.16 60.82 59.05 59.62 60.27 57.43 57.67 58.99 57.76 54.89 53.23 54.16 53.04 56.35 58.96 58.36 58.32 58.91 58.62 57.44 57.15 57.32 59.66 60.07
56.37 56.31 56.65 56.56 56.67 56.56 56.55 56.42 56.16 55.97 55.73 55.38 55.42 55.36 54.91 53.93 56.49 62.98 62.96 65.14 65.92 64.87 53.82 56.51 57.99 59.27 60.08 59.53 55.98 60.04 60.46 57.94 55.34 52.91 53.97 54.09 56.96 56.94 56.05 56.56 58.47 56.27 59.76 58.91 57.73 56.39 52.65
56.02 56.02 56.63 56.78 56.62 56.47 56.48 56.48 56.21 55.90 55.52 55.28 55.28 54.85 54.05 53.41 58.30 61.09 63.78 65.38 65.32 62.64 46.80 57.89 57.95 63.57 60.75 56.89 57.13 56.51 61.44 57.94 53.72 53.77 54.13 52.46 53.99 54.27 54.10 55.65 58.28 57.51 60.40 59.37 58.54 56.63 55.11
55.95 56.13 56.08 56.27 56.53 56.62 56.55 56.20 56.00 55.70 55.39 54.93 54.56 54.33 53.48 59.47 60.00 63.46 65.03 65.15 63.60 52.84 46.53 55.45 58.35 56.55 56.22 56.30 56.75 57.94 57.58 59.30 57.55 54.49 54.93 54.07 57.74 55.92 55.38 57.13 57.76 59.24 58.41 58.48 58.11 56.05 50.51
55.89 56.06 56.01 55.93 56.51 56.40 56.29 56.08 56.12 55.55 54.94 54.35 53.47 52.61 52.62 58.73 59.42 63.46 63.89 62.29 53.54 48.32 56.34 54.16 55.09 56.93 55.34 53.90 54.22 55.83 54.64 52.75 50.92 49.09 49.95 52.68 53.27 55.47 56.23 53.59 56.31 56.43 55.10 50.57 49.95 49.73 49.04
55.52 56.12 56.33 56.53 56.48 56.33 56.27 56.24 56.08 55.57 54.76 53.59 51.89 51.33 56.19 60.19 62.77 63.69 62.70 57.10 49.19 54.29 53.41 58.17 56.14 55.90 53.04 54.77 54.01 54.33 53.70 50.62 53.16 52.54 50.24 48.87 47.43 52.83 55.60 53.34 52.12 53.28 54.24 50.46 46.95 46.97 49.26
56.10 55.88 56.02 56.31 56.44 56.39 56.04 56.00 55.67 55.25 54.39 52.69 51.08 61.29 62.06 64.77 64.79 63.82 59.22 51.54 51.96 53.96 55.92 55.12 55.60 53.22 53.65 54.36 54.10 53.90 53.04 51.92 52.83 53.17 49.51 49.14 49.47 55.37 55.34 55.72 54.29 51.99 51.46 55.20 50.80 51.46 48.78
55.62 55.44 55.50 56.22 56.44 56.33 56.02 55.80 55.59 55.19 54.11 52.11 55.11 59.19 59.81 65.48 66.10 63.00 56.20 50.21 55.15 57.53 56.16 56.35 52.23 55.36 52.88 53.84 52.63 53.06 52.90 54.65 53.54 55.01 55.46 52.61 49.22 54.53 54.86 56.01 55.43 53.04 55.29 49.47 50.03 46.13 45.91
55.16 55.20 55.73 56.32 56.30 56.15 56.21 55.94 55.57 54.82 53.62 51.85 57.39 59.27 63.82 65.99 65.17 59.66 52.58 53.90 56.52 58.38 56.63 54.09 54.22 54.81 55.05 54.39 54.88 53.07 53.50 55.34 55.62 55.04 55.83 53.89 51.87 52.09 54.34 52.03 51.20 51.73 50.45 52.03 52.59 50.44 47.53
55.13 54.97 55.69 55.94 56.01 56.37 56.35 56.12 55.33 53.95 52.58 54.81 58.21 54.26 65.78 65.53 56.64 56.88 54.24 56.10 55.04 57.20 57.40 55.11 57.11 57.01 55.98 56.03 54.51 54.01 53.52 55.41 57.58 56.34 53.17 54.68 51.90 49.37 51.37 55.17 55.90 54.26 52.48 52.11 49.47 49.51 50.83
54.79 54.80 55.39 55.55 55.67 56.14 56.38 55.96 55.10 53.85 53.33 53.01 56.55 57.23 65.32 63.17 52.40 53.07 55.74 55.05 57.30 56.27 55.69 55.40 54.25 57.02 58.07 55.90 54.10 55.57 55.87 57.04 57.22 55.75 53.90 55.16 51.02 47.44 49.50 52.79 54.60 52.05 53.06 53.76 53.06 52.85 51.37
53.52 53.66 54.52 55.19 55.60 55.84 56.26 55.86 55.17 54.05 53.79 53.56 56.56 54.14 56.94 59.59 58.30 56.03 56.41 55.52 54.77 57.80 55.97 57.00 56.88 58.30 57.20 55.91 57.30 55.52 55.02 56.12 57.12 56.39 63.11 60.60 52.47 49.97 47.49 50.63 53.23 50.92 51.91 53.32 52.72 49.47 50.02
53.42 53.54 53.72 54.93 55.01 55.59 55.88 56.09 55.19 54.42 53.81 54.04 57.30 54.47 59.58 56.37 54.56 54.58 56.08 57.25 55.03 54.65 57.47 57.18 56.94 57.33 57.05 55.29 55.88 55.53 57.07 56.97 56.61 61.28 57.81 54.86 50.53 52.12 52.25 52.92 53.79 52.76 52.05 52.15 51.15 52.38 50.40
53.57 53.86 54.18 55.27 55.26 55.31 55.81 56.04 56.06 54.88 53.59 54.76 55.41 56.07 57.75 56.40 58.09 57.54 54.06 54.33 55.34 57.22 57.37 55.65 55.79 57.85 58.02 56.48 57.75 56.91 59.45 57.65 57.38 57.17 55.22 55.57 51.65 53.52 51.89 53.09 52.98 51.99 53.25 53.23 52.63 52.46 53.20
53.98 54.36 54.52 54.37 55.06 55.27 55.21 55.74 56.11 55.45 53.72 56.56 59.63 59.07 55.85 51.69 53.39 52.07 55.11 55.52 55.94 58.19 59.32 58.98 59.00 57.85 57.49 59.53 62.26 62.74 63.04 62.61 61.60 59.82 56.54 54.75 53.06 52.11 49.76 53.07 52.27 49.66 52.53 53.28 53.70 54.39 54.14
54.28 54.40 54.33 54.31 54.31 54.86 54.49 55.09 55.94 56.43 54.92 55.32 56.33 56.69 53.29 51.01 51.76 52.65 54.41 55.77 55.87 56.65 57.40 59.68 60.42 59.40 62.10 64.23 63.52 63.08 62.10 61.60 60.60 60.33 60.95 57.22 54.27 53.79 50.27 52.48 45.88 52.87 57.03 56.67 54.84 55.73 55.99
54.05 54.26 54.38 54.30 54.47 54.28 54.34 54.91 55.41 56.42 56.29 54.65 56.69 55.54 53.88 50.93 53.52 53.47 53.60 55.29 57.85 59.15 58.30 59.40 61.55 62.93 63.76 61.39 57.97 56.16 56.22 56.66 57.37 58.98 59.36 59.25 56.03 51.82 50.34 49.61 52.45 54.94 56.10 56.60 56.10 54.90 60.63
53.96 54.43 54.23 54.31 54.44 54.39 54.25 54.70 55.18 56.23 56.43 54.99 56.33 58.80 55.23 51.46 52.16 55.23 54.22 54.66 54.35 54.80 55.16 57.08 61.42 63.50 61.67 58.71 56.79 52.84 51.13 53.60 53.91 55.74 58.88 58.24 57.41 53.68 52.83 49.09 47.95 55.44 58.76 59.59 59.52 53.88 62.23
53.92 53.94 54.21 54.26 54.10 54.48 54.47 54.80 55.01 55.63 56.32 55.66 55.60 58.68 55.21 50.85 54.29 55.24 53.22 53.03 56.44 55.34 52.93 55.64 57.67 58.97 61.39 56.56 53.74 52.93 52.85 57.26 53.32 53.74 54.23 54.23 56.40 52.88 52.12 50.76 53.08 59.61 60.22 62.80 53.38 57.11 63.10
53.64 53.81 54.26 53.98 53.98 54.44 54.87 54.79 54.97 55.30 56.22 55.41 55.22 58.65 54.68 52.00 53.98 56.01 56.92 54.47 55.56 56.77 53.93 57.38 56.71 58.02 57.88 54.88 54.16 54.35 54.76 56.44 54.38 57.54 56.68 55.74 52.52 51.53 53.66 51.83 50.13 61.44 59.03 56.54 62.72 64.75 64.10
53.41 53.64 54.07 53.91 54.06 54.49 54.93 55.15 55.10 55.34 56.18 55.46 52.54 57.18 57.52 52.44 52.93 56.78 57.12 57.86 57.12 57.08 55.43 57.82 57.25 59.36 61.23 57.94 57.21 58.09 55.50 58.46 57.47 52.14 59.62 54.76 56.81 54.63 55.53 56.69 64.78 63.74 64.17 63.30 63.30 63.32 66.51

GFSGBSN_sfc_wetblb_345.txt.gz
Wetbulb
60.59 60.51 60.59 60.56 60.29 60.05 59.81 59.75 59.86 59.56 59.30 59.22 59.04 58.93 58.78 58.80 58.98 59.10 59.29 59.44 59.45 59.63 60.13 60.97 63.20 62.86 59.15 56.23 55.57 67.41 76.28 75.49 71.17 67.30 64.58 64.00 63.54 63.17 59.91 61.48 62.76 61.82 62.62 64.91 65.47 65.44 65.04
59.65 59.60 59.57 59.65 59.60 59.47 59.36 59.31 59.10 58.76 58.63 58.52 58.40 58.31 58.29 58.40 58.62 58.89 59.04 58.91 58.80 59.27 59.75 61.57 64.00 62.15 58.43 50.10 60.95 69.96 70.60 69.10 63.14 63.28 63.76 64.31 63.29 66.02 62.96 62.75 62.13 64.17 63.18 64.20 65.20 65.05 65.12
59.12 58.91 58.87 58.88 58.87 58.91 58.78 58.78 58.73 58.56 58.25 58.29 58.01 57.86 57.98 58.10 58.32 58.66 58.70 58.35 58.45 58.89 59.83 61.84 64.44 62.56 57.43 55.77 61.57 60.25 62.24 58.73 62.11 58.41 57.17 63.53 63.33 59.62 63.80 61.79 65.14 62.77 59.51 62.83 63.32 63.98 63.30
58.57 58.57 58.39 58.64 58.60 58.35 58.28 58.32 58.17 57.84 57.66 57.47 57.37 57.35 57.45 57.63 57.86 57.77 57.63 57.39 57.97 59.15 60.71 62.47 64.22 59.42 54.52 61.45 60.52 58.50 58.13 57.75 58.67 61.70 60.37 63.33 62.93 59.72 62.69 63.90 61.09 56.97 57.46 55.50 63.09 63.31 62.94
58.12 58.03 57.96 58.14 58.27 58.31 57.98 57.71 57.66 57.27 56.96 56.88 56.80 56.80 56.86 56.95 57.00 56.89 56.43 56.74 58.96 61.21 62.16 64.39 60.07 55.61 55.30 61.71 54.25 56.94 56.31 55.51 57.12 59.37 60.97 65.63 60.39 57.07 58.18 59.56 56.38 55.92 52.53 54.60 57.51 64.54 62.25
58.44 58.47 58.07 57.85 57.68 57.57 57.38 57.30 57.09 56.83 56.79 56.55 56.38 56.16 56.25 56.39 56.20 55.90 55.75 57.33 60.94 62.27 61.99 64.10 64.98 56.93 60.03 57.62 55.96 57.22 56.26 56.97 55.34 55.75 56.97 56.81 55.74 53.33 54.06 54.78 50.03 53.04 53.55 56.73 55.88 61.89 63.47
57.78 57.56 57.30 57.12 57.18 57.22 57.03 56.89 56.82 56.74 56.59 56.36 56.21 55.74 55.74 55.76 55.34 54.99 53.88 56.46 58.17 57.58 58.11 57.82 59.21 58.71 59.90 58.45 58.75 57.29 57.27 55.47 54.94 52.48 49.08 53.80 50.10 49.38 53.49 58.19 58.17 57.61 55.97 54.85 58.27 62.28 58.67
56.99 56.79 56.63 56.80 56.99 57.03 56.80 56.67 56.66 56.51 56.39 56.12 55.88 55.43 55.36 55.10 54.58 54.48 53.39 55.93 57.46 58.41 53.68 59.57 59.78 59.72 60.82 59.04 54.58 56.76 57.50 52.30 51.45 47.99 50.47 48.86 47.67 53.69 56.18 60.52 58.43 57.45 54.61 52.91 58.28 60.47 58.16
56.56 56.63 56.83 57.05 57.03 57.02 56.69 56.58 56.50 56.29 56.23 55.91 55.60 55.28 54.83 54.46 53.94 55.89 59.13 60.04 62.12 61.17 52.74 56.50 58.98 57.98 57.98 56.83 54.87 55.15 56.04 53.15 51.10 48.14 48.11 46.65 50.34 55.89 54.98 57.50 57.33 55.43 54.75 54.63 56.51 59.33 59.39
56.95 57.04 57.05 57.01 56.98 56.81 56.58 56.57 56.53 56.37 56.08 55.86 55.58 55.20 54.39 53.27 54.30 56.80 57.30 61.77 61.92 61.30 47.84 53.12 54.53 56.99 56.95 56.49 52.85 58.58 56.32 53.26 51.06 48.05 48.71 47.46 52.51 52.85 52.48 52.61 55.93 51.68 59.36 57.95 57.60 55.15 47.91
56.90 56.66 56.82 56.83 56.66 56.62 56.42 56.27 56.43 56.34 56.12 55.72 55.42 54.62 53.64 52.36 52.05 55.31 59.72 62.93 62.09 58.74 41.25 56.30 55.29 59.03 57.33 53.26 51.67 53.69 57.81 52.93 49.49 49.98 47.53 47.32 49.44 49.25 49.41 52.02 54.12 51.80 59.11 57.19 57.73 51.06 48.67
56.46 56.67 56.94 56.72 56.87 56.58 56.21 56.02 56.00 55.90 55.80 55.55 54.99 53.99 53.12 55.30 53.79 57.57 60.97 61.98 59.64 47.52 43.23 53.60 56.17 54.48 51.96 53.04 53.93 54.67 53.62 54.19 54.05 50.67 50.02 49.06 52.85 49.64 49.92 52.74 53.08 54.55 52.86 52.99 51.53 49.75 43.41
56.18 56.80 56.74 56.68 56.70 56.47 56.18 55.94 55.74 55.49 55.17 55.00 53.94 52.48 51.38 53.89 52.79 56.74 57.38 57.40 47.65 43.54 54.81 52.83 52.30 53.85 52.10 50.73 51.12 51.87 50.47 48.33 46.47 40.87 42.18 48.12 49.09 50.69 51.39 47.05 51.15 49.82 46.10 42.23 42.27 42.21 42.38
56.44 56.68 56.46 56.37 56.21 56.31 56.14 55.92 55.66 55.13 54.86 54.01 52.49 50.92 53.08 55.00 55.66 57.01 58.15 51.83 44.17 52.69 52.03 54.85 53.61 53.26 50.84 51.37 50.13 50.44 50.04 47.29 49.18 46.81 43.53 42.32 42.12 47.74 50.85 47.43 44.50 45.90 45.76 42.06 39.06 40.15 42.54
56.32 56.29 56.21 56.28 56.33 56.25 56.12 55.80 55.39 54.96 54.35 53.39 51.52 56.72 57.63 59.26 57.76 59.06 53.49 46.70 48.05 51.55 54.68 53.60 52.88 50.13 49.24 51.62 51.05 49.76 49.04 47.82 48.15 47.40 41.59 41.57 44.18 51.04 51.11 50.81 49.56 45.70 42.04 48.08 42.87 44.15 40.56
55.68 55.94 55.89 56.02 56.09 55.96 56.18 55.74 55.53 54.96 54.07 52.89 50.30 54.18 56.83 61.78 62.74 59.07 51.94 46.35 51.61 55.74 56.20 53.60 49.33 51.90 49.56 51.37 49.29 46.61 48.78 51.08 50.34 50.62 48.43 46.11 41.58 48.69 50.48 50.41 49.42 46.36 48.07 42.21 41.92 37.16 36.29
55.46 55.70 55.61 55.86 55.87 55.74 55.90 55.98 55.49 54.80 53.54 52.51 52.66 55.58 61.13 62.99 63.03 56.16 48.26 50.36 53.89 56.53 57.04 52.70 50.79 50.37 52.22 52.99 52.72 49.04 49.04 51.95 52.72 51.06 50.39 46.53 42.97 46.17 47.64 45.20 45.35 44.77 43.15 45.81 42.81 42.50 37.65
54.92 55.31 54.97 55.32 55.39 55.66 55.93 56.04 55.23 54.01 52.66 52.13 53.43 51.24 63.44 63.11 52.47 53.78 50.91 53.24 52.65 55.25 57.01 53.47 52.66 52.29 52.70 53.89 52.34 52.76 50.12 52.95 54.57 52.50 47.12 49.12 43.68 41.01 45.11 49.53 50.85 48.14 45.72 43.77 40.87 41.28 42.24
54.70 54.75 54.54 54.96 55.13 55.59 55.67 55.38 55.04 53.71 53.15 50.56 48.49 54.39 63.19 62.15 49.29 49.50 52.62 53.10 54.15 53.55 54.59 54.78 52.83 52.62 53.55 51.92 50.16 53.59 54.69 55.82 54.46 51.95 47.94 53.05 43.74 38.79 42.72 45.40 46.39 46.43 47.14 47.90 43.78 42.51 40.21
54.71 54.78 54.49 54.64 55.11 55.37 55.37 55.13 54.84 54.23 53.63 51.67 50.46 51.39 54.31 58.63 57.10 52.82 51.26 52.65 54.03 55.46 55.33 55.86 54.09 54.70 53.58 52.88 53.45 52.40 53.90 56.28 54.33 52.98 62.18 55.23 45.04 43.05 40.62 44.86 47.48 44.75 47.70 47.33 44.07 39.90 42.24
54.25 54.19 54.26 55.18 55.39 55.37 55.23 55.22 54.72 54.39 53.89 51.80 52.32 52.27 55.41 52.00 53.70 53.64 52.31 53.10 52.00 53.41 55.49 55.65 53.28 54.41 53.85 50.92 52.76 52.98 56.79 58.33 54.80 59.72 51.96 49.17 43.46 47.99 46.67 48.96 49.78 50.18 48.97 48.12 45.05 45.53 44.09
54.15 54.53 55.01 55.31 55.40 55.45 55.29 55.33 55.05 54.47 53.81 51.54 49.76 52.28 53.82 51.68 53.05 52.29 52.88 50.24 50.96 53.18 55.84 54.44 53.00 54.43 54.58 52.11 53.95 54.42 56.51 56.05 56.34 52.02 48.57 49.09 44.59 47.79 46.97 51.10 50.78 49.25 50.34 49.17 48.80 48.48 46.42
53.89 54.08 54.73 54.97 55.32 55.35 55.43 55.24 55.14 54.62 53.85 52.60 54.45 55.36 53.17 50.33 50.67 48.51 50.08 51.59 54.84 55.14 56.72 57.93 56.76 55.19 55.01 57.71 58.93 58.55 58.06 57.90 58.26 55.76 54.05 47.93 46.26 44.83 42.79 50.05 49.50 45.57 48.55 49.59 49.80 49.60 48.44
54.31 54.22 54.50 54.65 54.70 55.31 55.40 55.19 55.19 55.19 55.08 52.91 52.11 52.29 50.26 47.22 49.84 50.40 51.79 52.56 52.68 54.87 54.79 58.04 59.66 57.22 59.63 61.58 60.40 59.27 58.68 57.62 58.41 57.95 56.57 51.93 49.26 46.79 44.57 45.84 40.61 48.57 50.81 52.13 50.83 52.65 50.41
54.55 54.27 54.34 54.55 54.63 55.07 55.37 55.05 55.03 55.37 55.59 53.56 53.34 51.54 50.58 46.11 50.47 51.46 52.32 52.75 53.77 56.06 56.81 57.15 58.99 60.76 61.57 58.69 53.94 52.21 52.30 52.66 55.58 56.65 54.59 54.58 51.47 45.77 43.29 43.88 48.20 50.25 51.55 52.88 51.96 54.00 57.54
54.29 54.47 54.12 54.38 54.48 54.64 54.78 54.94 54.89 55.29 55.23 54.08 53.56 54.86 52.53 47.75 47.45 51.69 49.75 52.51 50.85 51.86 54.07 55.59 58.36 58.47 59.40 55.15 52.19 48.17 47.36 51.44 50.50 52.36 55.06 54.35 54.59 49.61 46.41 42.31 42.31 50.65 56.82 59.51 58.06 52.89 58.56
53.91 54.08 54.08 54.00 54.15 54.43 54.55 55.00 54.84 55.40 55.20 54.43 52.88 54.87 52.29 47.76 51.09 51.72 48.99 49.36 53.47 52.48 51.95 52.86 54.98 55.23 57.01 52.54 49.51 48.18 49.18 54.59 49.39 50.41 52.34 51.46 50.29 47.54 47.24 45.30 48.77 56.72 59.06 60.05 49.81 50.79 61.07
54.11 53.97 53.91 53.87 54.06 53.97 54.36 54.68 54.93 55.03 55.56 54.76 52.47 55.08 52.46 48.83 50.06 52.16 52.66 50.55 51.90 52.07 48.67 51.88 52.96 55.19 54.56 51.32 51.03 50.57 50.27 52.12 51.73 52.75 52.07 50.70 48.04 47.46 47.50 45.09 44.34 58.85 57.99 53.86 56.04 57.37 61.12
53.72 53.64 53.80 54.01 53.89 53.98 54.33 54.75 55.13 55.39 55.67 55.31 50.04 55.56 55.53 50.68 49.72 53.92 53.74 54.59 53.89 54.38 51.29 52.01 51.52 53.28 56.97 55.25 55.21 55.54 54.01 54.21 53.98 49.12 56.57 50.59 53.33 50.19 51.09 51.00 57.66 59.74 57.10 59.99 58.67 60.48 60.62